SCP
0 0 0 0 0 0 0 0 0 0 0 0 0 0 0 0 0 0 0 0 0 0 0 0 0 0 0 0 0 0 0 0 0 0 0 0 0 0 0 0 0 0 0
0 0 0 0 0 0 0 0 0 0 0 0 0 0 0 0 0 0 0 0 0 0 0 0 0 0 0 0 0 0 0 0 0 0 0 0 0 0 0 0 0 0 0
0 0 0 0 0 0 0 0 0 0 0 0 0 0 0 0 0 0 0 0 0 0 0 0 0 0 0 0 0 0 0 0 0 0 0 0 0 0 0 0 0 0 0
0 0 0 0 0 0 0 0 0 0 0 0 0 0 0 0 0 0 0 0 0 0 0 0 0 0 0 0 0 0 0 0 0 0 0 0 0 0 0 0 0 0 0
0 0 0 0 0 0 0 0 0 0 0 0 0 0 0 0 0 0 0 0 0 0 0 0 0 0 0 0 0 0 0 0 0 0 0 0 0 0 0 0 0 0 0
0 0 0 0 0 0 0 0 0 0 0 0 0 0 0 0 0 0 0 0 0 0 0 0 0 0 0 0 0 0 0 0 0 0 0 0 0 0 0 0 0 0 0
0 0 0 0 0 0 0 0 0 0 0 0 0 0 0 0 0 0 0 0 0 0 0 0 0 0 0 0 0 0 0 0 0 0 0 0 0 0 0 0 0 0 0
0 0 0 0 0 0 0 0 0 0 0 0 0 0 0 0 0 0 0 0 0 0 0 0 0 0 0 0 0 0 0 0 0 0 0 0 0 0 0 0 0 0 0
0 0 0 0 0 0 0 0 0 0 0 0 0 0 0 0 0 0 0 0 0 0 0 0 0 0 0 0 0 0 0 0 0 0 0 0 0 0 0 0 0 0 0
0 0 0 0 0 0 0 0 0 0 0 0 0 0 0 0 0 0 0 0 0 0 0 0 0 0 0 0 0 0 0 0 0 0 0 0 0 0 0 0 0 0 0
0 0 0 0 0 0 0 0 0 0 0 0 0 0 0 0 0 0 0 0 0 0 0 0 0 0 0 0 0 0 0 0 0 0 0 0 0 0 0 0 0 0 0
0 0 0 0 0 0 0 0 0 0 0 0 0 0 0 0 0 0 0 0 0 0 0 0 0 0 0 0 0 0 0 0 0 0 0 0 0 0 0 0 0 0 0
0 0 0 0 0 0 0 0 0 0 0 0 0 0 0 0 0 0 0 0 0 0 0 0 0 0 0 0 0 0 0 0 0 0 0 0 0 0 0 0 0 0 0
0 0 0 0 0 0 0 0 0 0 0 0 0 0 0 0 0 0 0 0 0 0 0 0 0 0 0 0 0 0 0 0 0 0 0 0 0 0 0 0 0 0 0
0 0 0 0 0 0 0 0 0 0 0 0 0 0 0 0 0 0 0 0 0 0 0 0 0 0 0 0 0 0 0 0 0 0 0 0 0 0 0 0 0 0 0
0 0 0 0 0 0 0 0 0 0 0 0 0 0 0 0 0 0 0 0 0 0 0 0 0 0 0 0 0 0 0 0 0 0 0 0 0 0 0 0 0 0 0
0 0 0 0 0 0 0 0 0 0 0 0 0 0 0 0 0 0 0 0 0 0 0 0 0 0 0 0 0 0 0 0 0 0 0 0 0 0 0 0 0 0 0
0 0 0 0 0 0 0 0 0 0 0 0 0 0 0 0 0 0 0 0 0 0 0 0 0 0 0 0 0 0 0 0 0 0 0 0 0 0 0 0 0 0 0
0 0 0 0 0 0 0 0 0 0 0 0 0 0 0 0 0 0 0 0 0 0 0 0 0 0 0 0 0 0 0 0 0 0 0 0 0 0 0 0 0 0 0
0 0 0 0 0 0 0 0 0 0 0 0 0 0 0 0 0 0 0 0 0 0 0 0 0 0 0 0 0 0 0 0 0 0 0 0 0 0 0 0 0 0 0
0 0 0 0 0 0 0 0 0 0 0 0 0 0 0 0 0 0 0 0 0 0 0 0 0 0 0 0 0 0 0 0 0 0 0 0 0 0 0 0 0 0 0
0 0 0 0 0 0 0 0 0 0 0 0 0 0 0 0 0 0 0 0 0 0 0 0 0 0 0 0 0 0 0 0 0 0 0 0 0 0 0 0 0 0 0
0 0 0 0 0 0 0 0 0 0 0 0 0 0 0 0 0 0 0 0 0 0 0 0 0 0 0 0 0 0 0 0 0 0 0 0 0 0 0 0 0 0 0
0 0 0 0 0 0 0 0 0 0 0 0 0 0 0 0 0 0 0 0 0 0 0 0 0 0 0 0 0 0 0 0 0 0 0 0 0 0 0 0 0 0 0
0 0 0 0 0 0 0 0 0 0 0 0 0 0 0 0 0 0 0 0 0 0 0 0 0 0 0 0 0 0 0 0 0 0 0 0 0 0 0 0 0 0 0
0 0 0 0 0 0 0 0 0 0 0 0 0 0 0 0 0 0 0 0 0 0 0 0 0 0 0 0 0 0 0 0 0 0 0 0 0 0 0 0 0 0 0
Wind_Speed
1 1 1 1 1 1 2 1 1 1 1 1 1 2 1 1 2 3 4 6 7 6 5 5 4 4 4 3 3 3 3 4 5 5 6 6 6 6 6 6 5 5 5
1 1 0 1 1 0 0 0 1 0 0 0 0 0 0 1 2 2 4 4 6 6 5 5 5 4 4 4 4 4 4 5 6 6 6 6 6 5 5 6 6 5 5
2 1 0 1 0 0 0 0 0 0 1 1 1 1 0 0 1 2 3 3 4 5 6 6 5 5 6 5 5 4 5 6 6 6 5 5 5 5 5 5 5 5 5
1 1 1 1 1 1 1 1 1 0 1 0 0 0 0 1 2 2 2 3 3 3 5 7 6 5 5 6 5 5 6 6 6 5 5 5 5 5 5 4 4 4 5
2 1 0 1 0 1 1 1 1 1 1 1 1 1 1 1 1 1 2 3 2 3 3 6 7 7 6 6 6 6 6 6 5 5 5 5 5 4 4 4 4 4 4
1 1 1 1 1 1 0 0 0 1 1 1 2 1 0 1 1 1 1 2 2 3 3 5 5 6 8 7 7 7 6 5 5 5 5 4 4 4 4 4 4 4 4
1 1 1 1 1 1 1 1 1 2 1 1 0 1 1 1 1 1 1 2 2 3 4 4 3 3 4 7 7 7 6 5 5 4 4 4 4 4 4 4 4 4 4
1 1 2 1 1 1 1 1 1 1 1 1 1 1 1 1 1 2 2 2 2 2 3 4 4 3 3 4 6 8 6 4 4 4 4 3 3 3 3 4 5 5 4
2 1 2 1 1 1 1 1 1 2 1 1 1 1 0 1 0 1 2 2 2 2 1 3 4 4 3 3 5 6 6 5 4 4 4 4 3 3 3 3 4 4 5
2 2 2 1 1 1 1 2 2 1 1 1 1 1 1 1 1 0 1 1 2 2 2 1 3 3 3 3 5 8 7 6 5 4 5 5 4 3 3 3 3 3 3
2 2 2 2 1 1 1 1 0 0 1 1 2 1 1 1 1 1 1 1 1 1 2 2 2 2 3 3 4 7 8 6 5 4 4 4 4 4 4 4 4 4 3
2 2 2 2 2 1 1 1 1 1 1 1 1 1 1 1 1 1 1 2 2 2 2 2 2 2 2 3 5 9 9 7 6 5 4 3 4 4 5 5 5 4 4
2 1 2 2 2 1 1 1 1 1 1 1 1 1 1 1 0 0 1 1 1 1 2 2 3 3 2 3 4 9 8 8 7 6 4 3 3 3 4 4 5 4 4
2 2 2 2 2 2 1 1 1 2 1 1 1 1 1 1 1 0 0 0 0 0 1 2 2 2 2 3 5 8 6 8 8 7 6 5 4 3 3 3 4 4 3
2 2 2 2 2 2 1 1 1 1 1 1 1 1 1 1 1 0 0 0 0 1 1 2 1 2 2 2 6 4 4 7 8 8 7 6 6 5 4 4 4 4 3
1 2 2 2 2 2 2 1 1 1 2 2 1 1 1 1 1 1 1 1 1 1 1 1 1 2 2 2 5 3 4 8 8 9 9 8 7 7 6 6 5 4 4
2 2 3 2 2 2 2 1 2 2 2 2 2 2 2 1 1 1 1 0 0 0 1 1 1 1 2 2 2 3 4 5 5 10 10 10 9 9 8 7 7 6 5
3 3 2 2 2 2 3 3 3 2 2 3 3 2 2 2 1 1 1 1 1 1 1 2 1 1 2 3 4 4 4 4 4 8 11 11 11 11 10 9 9 8 7
3 3 2 2 2 2 3 3 3 2 2 2 2 3 3 2 2 2 2 1 1 1 1 1 2 1 2 2 2 3 3 2 4 6 9 11 12 11 11 11 10 9 8
3 3 3 3 3 3 3 3 3 3 3 3 3 3 3 3 3 2 2 2 1 1 1 2 2 1 1 1 2 2 2 2 3 3 4 6 9 11 12 11 11 11 10
4 3 3 3 3 3 3 3 3 4 3 3 3 2 3 3 3 3 3 1 1 1 2 2 2 1 1 1 1 2 1 2 2 2 2 3 4 5 6 9 11 12 11
3 3 3 3 3 3 3 3 3 3 3 3 3 2 3 4 4 4 3 3 3 3 3 2 2 2 2 1 1 1 1 1 2 1 1 3 2 4 5 6 10 13 13
3 3 3 3 3 3 5 5 4 2 2 3 3 3 4 3 4 3 4 5 5 7 7 4 4 3 3 2 1 2 2 2 3 2 2 3 2 3 3 4 11 13 12
3 3 4 4 3 4 6 5 4 4 3 3 4 4 4 3 2 2 2 3 4 4 5 5 4 4 3 2 2 3 3 3 3 3 2 3 2 2 2 2 9 11 11
3 4 4 4 4 4 7 7 5 3 4 5 5 5 4 4 4 3 3 3 3 3 3 3 4 5 5 4 3 1 3 2 3 2 1 2 2 2 2 2 4 9 10
3 4 4 4 4 5 8 9 7 4 4 4 4 4 5 5 6 6 4 3 4 3 2 2 3 4 5 6 7 5 4 3 3 2 1 1 2 1 2 2 1 3 4
Wind_Direction
147 132 137 174 201 175 163 180 203 201 214 209 199 209 213 152 137 120 125 143 143 148 152 159 173 180 182 175 166 159 157 158 150 144 150 153 153 154 158 159 158 166 176
110 107 203 195 193 141 154 153 196 236 297 346 204 241 256 122 115 122 134 148 154 157 155 153 162 167 170 160 162 157 154 155 148 144 142 143 145 150 157 164 163 168 176
119 133 195 207 179 120 108 78 278 200 224 204 194 210 246 111 136 144 144 153 156 162 160 157 158 161 161 154 155 152 143 143 141 141 140 139 139 142 151 164 170 178 185
133 163 203 177 157 158 168 196 213 237 251 253 319 243 168 167 187 174 165 166 162 158 163 167 164 156 155 149 145 146 144 144 142 146 145 144 146 147 150 153 165 175 184
150 148 114 83 140 185 212 217 174 184 232 233 224 220 213 207 185 186 173 162 151 144 150 162 162 157 156 151 149 146 149 150 150 153 157 160 161 160 158 158 162 161 166
162 142 155 163 180 185 196 195 193 225 233 237 237 232 222 222 190 163 178 144 146 155 151 152 161 167 167 165 158 151 154 156 158 155 163 170 173 171 172 173 174 172 172
137 145 141 155 201 181 188 205 216 231 228 242 198 236 213 194 195 160 161 159 162 158 154 152 157 157 166 172 165 159 163 168 174 178 177 176 177 176 181 184 182 178 178
159 176 133 165 168 153 192 212 221 256 249 188 198 212 195 162 216 183 185 179 168 166 166 157 154 151 155 158 160 165 162 164 175 183 181 172 166 177 182 196 191 188 188
158 146 143 154 160 163 187 206 242 238 255 251 213 195 167 175 193 182 209 161 156 161 163 154 161 150 152 145 152 163 164 168 181 186 179 165 161 168 177 192 193 196 198
161 154 150 149 184 186 189 222 214 259 251 259 247 219 157 128 144 156 237 179 180 171 169 169 145 148 149 144 143 153 162 169 180 188 183 178 180 191 198 202 203 199 201
163 167 164 158 173 190 199 215 124 296 281 271 271 269 220 191 203 186 209 201 193 175 170 172 161 149 156 155 148 149 153 157 165 178 187 188 196 209 215 217 217 213 213
154 155 152 153 160 178 177 191 181 203 244 275 295 303 267 176 207 200 189 205 195 200 186 167 163 157 171 156 160 152 158 163 172 178 185 194 207 222 222 221 220 220 222
144 151 155 144 150 172 165 167 171 214 218 232 282 300 318 296 274 223 140 219 218 195 174 178 181 170 174 140 147 161 166 172 176 177 181 189 203 217 217 220 218 219 223
150 155 158 158 168 182 183 171 192 203 184 211 238 263 288 293 303 322 114 65 304 255 176 186 173 162 155 146 163 173 174 180 180 180 188 195 200 207 214 210 211 212 217
163 149 153 164 171 167 176 174 194 202 180 202 233 237 270 269 288 284 202 180 179 264 251 195 165 163 157 147 165 179 168 180 182 187 192 198 200 201 209 209 209 209 211
157 165 169 166 165 164 170 173 209 199 187 195 216 231 262 299 309 271 245 220 223 246 267 251 195 164 160 174 176 180 175 181 189 190 195 197 200 203 207 212 207 205 206
176 180 176 171 172 167 174 193 211 198 204 213 226 205 196 244 300 306 312 277 235 265 263 292 240 175 162 174 172 196 184 187 189 200 200 200 203 208 211 211 208 205 207
182 187 173 175 187 179 185 204 214 214 209 213 222 215 211 215 202 270 301 296 272 245 231 255 256 201 191 185 188 206 206 203 198 204 202 201 204 209 209 208 206 206 209
183 184 185 192 209 199 195 205 208 217 223 226 220 215 214 213 217 214 231 247 262 269 235 239 251 222 197 190 190 229 229 217 221 205 201 206 210 209 209 209 208 208 211
189 189 196 206 214 213 200 201 204 215 221 224 225 222 221 216 215 221 229 223 240 270 263 243 239 235 214 201 196 220 238 236 246 223 207 203 206 209 213 212 210 211 213
202 194 203 218 220 217 204 206 209 211 212 220 224 223 224 201 202 221 237 224 234 246 260 252 245 243 227 215 219 235 239 260 264 232 217 216 197 205 212 216 214 214 214
208 204 211 218 223 220 179 184 211 219 208 215 222 227 217 200 198 208 217 227 220 229 245 250 259 246 241 240 220 260 262 279 276 242 237 257 209 211 204 197 202 207 212
209 219 222 217 217 209 182 179 192 215 226 221 224 230 245 210 192 202 211 228 233 231 225 231 252 255 248 238 219 259 260 261 267 252 244 259 242 237 226 192 186 199 206
207 226 233 226 215 205 189 186 190 214 238 238 228 224 223 219 216 216 233 228 224 226 224 221 238 249 250 252 228 232 241 258 261 250 223 249 257 249 247 182 192 196 203
215 228 229 223 213 198 195 191 191 220 229 235 235 224 214 204 186 210 240 253 250 241 239 226 223 238 236 248 243 233 242 245 261 254 217 232 252 261 244 219 211 203 205
222 230 226 223 216 200 193 193 195 228 236 234 229 216 207 196 190 202 221 244 252 253 254 247 253 252 240 235 225 215 224 233 248 263 232 229 262 269 276 244 200 186 210